Weather History for Tel Aviv, Israel

Change the Weather History Date:

Tuesday, December 18, 2012

  Actual Average Record
Temperature  
Mean Temperature 61 °F -  
Max Temperature 70 °F 63 °F 77 °F (2008)
Min Temperature 52 °F 48 °F 41 °F (2004)
Degree Days  
Heating Degree Days 4    
Growing Degree Days 11 (Base 50)    
Moisture  
Dew Point 46 °F    
Average Humidity 58    
Maximum Humidity 77    
Minimum Humidity 30    
Precipitation  
Precipitation 0.00 in - - ()
Sea Level Pressure  
Sea Level Pressure 30.00 in    
Wind  
Wind Speed 5 mph ()    
Max Wind Speed 13 mph    
Max Gust Speed -    
Visibility 6.0 miles    
Events      
Averages and records for this station are not official NWS values.
T = Trace of Precipitation, MM = Missing Value Source: Averaged Metar Reports

Daily Weather History Graph

Daily Weather History Graph

Search for Another Location

Airport:

Trip Planner

Search our weather history database for the weather conditions in past years. The results will help you decide how hot, cold, wet, or windy it might be!

Date:

Astronomy

Dec. 18, 2012 Rise Set
Actual Time 6:35 AM IST 4:38 PM IST
Civil Twilight 6:08 AM IST 5:06 PM IST
Nautical Twilight 5:37 AM IST 5:36 PM IST
Astronomical Twilight 5:07 AM IST 6:06 PM IST
Moon 10:22 AM IST (12/18) 10:23 PM IST (12/18)
Length of Visible Light 10h 57m
Length of Day
10h 03m
Waxing Crescent, 31% of the Moon is Illuminated
Dec 18
Waxing Crescent
Dec 20
First Quarter
Dec 28
Full
Jan 5
Last Quarter
Jan 11
New

Hourly Weather History & Observations

Time (IST) Temp. Dew Point Humidity Pressure Visibility Wind Dir Wind Speed Gust Speed Precip Events Conditions
2:00 AM 56 °F 48 °F 68% 30.04 in 6 mi SE 4.6 mph - -   Partly Cloudy
2:50 AM 55.4 °F 48.2 °F 77% 30.01 in - ENE 2.3 mph - N/A   Clear
3:50 AM 53.6 °F 46.4 °F 77% 30.01 in - Variable 1.2 mph - N/A   Clear
4:50 AM 53.6 °F 44.6 °F 72% 30.01 in - Variable 1.2 mph - N/A   Clear
5:50 AM 53.6 °F 44.6 °F 72% 30.01 in - ESE 5.8 mph - N/A   Clear
6:50 AM 53.6 °F 44.6 °F 72% 30.04 in - SSE 3.5 mph - N/A   Clear
7:50 AM 55.4 °F 46.4 °F 72% 30.04 in - SSE 3.5 mph - N/A   Clear
8:00 AM 56 °F 46 °F 59% 30.04 in 6 mi SSE 3.5 mph - -  
8:50 AM 60.8 °F 44.6 °F 55% 30.04 in - SSW 1.2 mph - N/A   Clear
9:50 AM 64.4 °F 44.6 °F 49% 30.04 in - South 9.2 mph - N/A   Clear
10:50 AM 66.2 °F 44.6 °F 46% 30.01 in - South 10.4 mph - N/A   Unknown
11:50 AM 68.0 °F 44.6 °F 43% 29.98 in - South 10.4 mph - N/A   Clear
12:50 PM 69.8 °F 44.6 °F 40% 29.98 in - SSW 12.7 mph - N/A   Clear
1:50 PM 69.8 °F 46.4 °F 43% 29.98 in - SSW 11.5 mph - N/A   Clear
2:00 PM 70 °F 46 °F 30% 29.98 in 6 mi SSW 11.5 mph - -   Clear
2:50 PM 69.8 °F 48.2 °F 46% 29.98 in - SW 9.2 mph - N/A   Clear
3:50 PM 66.2 °F 48.2 °F 52% 29.98 in - SW 8.1 mph - N/A   Clear
4:50 PM 64.4 °F 48.2 °F 56% 29.98 in - West 4.6 mph - N/A   Clear
5:50 PM 64.4 °F 48.2 °F 56% 29.98 in - ESE 4.6 mph - N/A   Clear
6:50 PM 62.6 °F 48.2 °F 59% 29.98 in - ESE 4.6 mph - N/A   Clear
7:50 PM 60.8 °F 48.2 °F 63% 29.98 in - ESE 4.6 mph - N/A   Clear
8:00 PM 60 °F 48 °F 56% 30.00 in 6 mi ESE 4.6 mph - -   Partly Cloudy
8:50 PM 59.0 °F 46.4 °F 63% 29.98 in - NE 2.3 mph - N/A   Clear
9:50 PM 59.0 °F 46.4 °F 63% 29.98 in - ESE 2.3 mph - N/A   Clear
10:50 PM 59.0 °F 44.6 °F 59% 29.98 in - SE 4.6 mph - N/A   Clear
11:50 PM 60.8 °F 44.6 °F 55% 29.98 in - SSE 3.5 mph - N/A   Clear